Weather in Itum-Kali

Russia / Chechen Republic     42°44′10″N   45°34′32″E
temp.,
°C
wind,
m/s
gust,
m/s
humid.,
%
clouds,
%
prec.,
mm/h
press.,
hPa
HPBL,
m
29 november, mon
mon2900:00+4ssw347237 0.0 101467
03:00+4sw327279 0.0 101634
06:00+3ssw337214 0.0 101735
09:00+7ssw22605 0.0 101577
12:00+11sse014690 0.0 1014697
15:00+10ssw22535 0.0 1014246
18:00+6ssw44575 0.0 101655
21:00+7ssw43435 0.0 101542
30 november, tue
tue3000:00+7ssw55405 0.0 101367
03:00+9ssw6751100 0.0 1010129
06:00+9ssw685278 0.0 1009146
09:00+11ssw5744100 0.0 1008200
12:00+11ese2454100 0.0 1008415
15:00+11s25540 0.0 1006402
18:00+8ssw45562 0.0 100596
21:00+8ssw58540 0.0 1001214
1 december, wed
wed100:00+8ssw69520 0.0 997263
03:00+7ssw69551 0.0 996252
06:00+5ssw25633 0.0 998165
09:00+4ssw137225 0.1 1000327
12:00+5n3269100 0.4 1001938
15:00−1ne2298100 7.4 1007203
18:00−3ne2297100 1.9 1010227
21:00−4ene2297100 3.0 1012178
2 december, thu
thu200:00−5e119789 0.3 101298
03:00−6ssw218840 0.3 101318
06:00−6ssw227922 0.0 101526
09:00−1wnw0263100 0.0 1016446
12:00−3ne2290100 0.8 1020512
15:00−2ese127416 0.9 1020356
18:00−5ssw32783 0.0 102527
21:00−5ssw32580 0.0 102532
3 december, fri
fri300:00−4ssw43540 0.0 102446
03:00−3ssw44565 0.0 102447
06:00−3ssw44540 0.0 102343
09:00+2ssw33505 0.0 102063
12:00+8s124528 0.0 1016229
15:00+5ssw226678 0.0 101644
18:000ssw4456100 0.0 102046
21:000ssw445436 0.0 102049